Estación de La Unión Norte

Ultimos registro cada 15 minutos 58
Estación Fecha / Hora Temperatura Humedad Lluvia Velocidad Dirección Radiación Presion
58 La Unión Norte 02-05-2026 14:15 14,3 60,1 0 0 197 395,6 1015,8
57 La Unión Norte 02-05-2026 14:00 14 65,7 0 0 197 425,6 1016,1
56 La Unión Norte 02-05-2026 13:45 12,9 69,5 0 0 183 380,6 1016,3
55 La Unión Norte 02-05-2026 13:30 13,3 69,9 0 0 180 441,9 1016,8
54 La Unión Norte 02-05-2026 13:15 12,1 74,6 0 0 181 400,6 1017
53 La Unión Norte 02-05-2026 13:00 10,7 78,9 0 0 190 499,4 1017,1
52 La Unión Norte 02-05-2026 12:45 10,3 79,4 0 0 191 461,9 1017,5
51 La Unión Norte 02-05-2026 12:30 10,3 80,4 0 0 183 259,4 1018
50 La Unión Norte 02-05-2026 12:15 9,9 83,5 0 0 204 324,4 1017,9
49 La Unión Norte 02-05-2026 12:00 9,2 92,7 0 0 205 441,9 1018
48 La Unión Norte 02-05-2026 11:45 8,2 96,6 0 0 205 431,9 1019,2
47 La Unión Norte 02-05-2026 11:30 7,7 97,8 0 0 205 456,9 1019,3
46 La Unión Norte 02-05-2026 11:15 6,9 98,2 0 0 205 369,4 1019,6
45 La Unión Norte 02-05-2026 11:00 6,2 98,4 0 0 233 341,9 1019,9
44 La Unión Norte 02-05-2026 10:45 5,5 98,7 0 0 239 259,4 1019,8
43 La Unión Norte 02-05-2026 10:30 4,7 98,8 0 0 226 294,4 1020,1
42 La Unión Norte 02-05-2026 10:15 3,3 98,7 0 0 219 216,9 1020,5
41 La Unión Norte 02-05-2026 10:00 2,6 98,7 0 0 219 133,1 1020,7
40 La Unión Norte 02-05-2026 09:45 2 98,6 0 0 219 98,1 1020,7
39 La Unión Norte 02-05-2026 09:30 1,6 98,6 0 0 219 94,4 1020,9
38 La Unión Norte 02-05-2026 09:15 1 98,5 0 0 219 74,4 1021,1
37 La Unión Norte 02-05-2026 09:00 0,7 98,6 0 0 219 63,1 1021,5
36 La Unión Norte 02-05-2026 08:45 0,3 98,5 0 0 219 45,6 1021,6
35 La Unión Norte 02-05-2026 08:30 0 98,4 0 0 219 34,4 1021,6
34 La Unión Norte 02-05-2026 08:15 -0,1 98,4 0 0 219 15,6 1021,9
33 La Unión Norte 02-05-2026 08:00 -0,1 98,3 0 0 219 8,1 1021,7
32 La Unión Norte 02-05-2026 07:45 -0,1 98,3 0 0 219 3,1 1022
31 La Unión Norte 02-05-2026 07:30 -0,1 98,2 0 0 219 0,6 1021,9
30 La Unión Norte 02-05-2026 07:15 -0,1 98,1 0 0 219 0,6 1022,1
29 La Unión Norte 02-05-2026 07:00 -0,1 98 0 0 219 0,6 1022,3
28 La Unión Norte 02-05-2026 06:45 -0,2 97,9 0 0 219 0,6 1022,3
27 La Unión Norte 02-05-2026 06:30 0,1 97,9 0 0 219 0,6 1022,4
26 La Unión Norte 02-05-2026 06:15 0,1 97,9 0 0 219 0,6 1022,7
25 La Unión Norte 02-05-2026 06:00 0,1 97,9 0 0 219 0,6 1022,9
24 La Unión Norte 02-05-2026 05:45 0 97,8 0 0 219 0,6 1022,9
23 La Unión Norte 02-05-2026 05:30 -0,2 97,7 0 0 219 0,6 1023,1
22 La Unión Norte 02-05-2026 05:15 -0,3 97,6 0 0 219 0,6 1023,3
21 La Unión Norte 02-05-2026 05:00 -0,3 97,5 0 0 219 0,6 1023,3
20 La Unión Norte 02-05-2026 04:45 -0,3 97,5 0 0 219 0,6 1023,4
19 La Unión Norte 02-05-2026 04:30 -0,1 97,5 0 0 219 0,6 1023,4
18 La Unión Norte 02-05-2026 04:15 0 97,5 0 0 219 0,6 1023,7
17 La Unión Norte 02-05-2026 04:00 0,1 97,3 0 0 219 0,6 1023,9
16 La Unión Norte 02-05-2026 03:45 0,2 97,3 0 0 219 0,6 1024
15 La Unión Norte 02-05-2026 03:30 0,3 97,2 0 0 219 0,6 1024,1
14 La Unión Norte 02-05-2026 03:15 0,5 97,2 0 0 219 0,6 1024,3
13 La Unión Norte 02-05-2026 03:00 0,5 97,1 0 0 219 0,6 1024,4
12 La Unión Norte 02-05-2026 02:45 0,7 97 0 0 219 0,6 1024,5
11 La Unión Norte 02-05-2026 02:30 0,7 96,7 0 0 219 0,6 1024,7
10 La Unión Norte 02-05-2026 02:15 1 96,8 0 0 219 0,6 1024,8
9 La Unión Norte 02-05-2026 02:00 1 96,8 0 0 219 0,6 1024,8
8 La Unión Norte 02-05-2026 01:45 1 96,4 0 0 219 0,6 1025
7 La Unión Norte 02-05-2026 01:30 1,2 96,4 0 0 219 0,6 1025,2
6 La Unión Norte 02-05-2026 01:15 1,4 96,2 0 0 219 0,6 1025
5 La Unión Norte 02-05-2026 01:00 1,6 96,1 0 0 219 0,6 1025,2
4 La Unión Norte 02-05-2026 00:45 1,8 95,9 0 0 219 0,6 1025,2
3 La Unión Norte 02-05-2026 00:30 2 95,8 0 0 219 0,6 1025,3
2 La Unión Norte 02-05-2026 00:15 2,4 95,6 0 0 219 0,6 1025,6
1 La Unión Norte 02-05-2026 00:00 2,5 95,4 0 0 219 0,6 1025,5